User: anonymous   Login
Location: Myra
(43.4160°N, 88.0960°W)
Time: 11:39:36
(UTC-06:00)
Language:

SL-8 R/B - Orbit

View from above orbital plane
View from above orbital plane
View from above satellite
View from above satellite

Ground track
Ground track

The orbit data is extracted from the following two-line orbital elements,

1 33066U 08031G   16338.19180013 -.00000070  00000-0  21073-4 0  9999
2 33066  48.4445 307.1296 0007779   3.2142  66.8797 14.69495654453939
Epoch (UTC): 03 December 2016 04:36:11
Eccentricity: 0.0007779
inclination: 48.4445°
perigee height: 657 km
apogee height: 668 km
right ascension of ascending node: 307.1296°
argument of perigee: 3.2142°
revolutions per day: 14.69495654
mean anomaly at epoch: 66.8797°
orbit number at epoch: 45393

The dashed part of the orbit path shows where the satellite is in the earth's shadow,  

DLR